Terminal Aerodrome Forecast
Issued by NWS

Home | Current Version | Previous Version | Text Only | Print | Product List | Glossary On
Versions: 1 2 3 4 5 6 7 8 9 10 11 12 13 14 15 16 17 18 19 20 21 22 23 24 25 26 27 28 29 30 31
913
FTUS41 KOKX 180830 AAA
TAFSWF
TAF AMD
KSWF 180830Z 1809/1912 VRB04KT P6SM BKN015 OVC030
     FM181000 14004KT 5SM -SHRA VCTS OVC015CB
     FM181200 14005KT 3SM -SHRA VCTS OVC007CB
      TEMPO 1812/1815 1 1/2SM -SHRA OVC007
     FM181500 17005KT 6SM BR OVC007
     FM181800 18005KT P6SM OVC015
     FM182200 18005KT 6SM -SHRA VCTS OVC025CB PROB30 1822/1901 2SM
      TSRA OVC010CB
     FM190500 20006KT 4SM BR OVC040
      AMD NOT SKED=

USA.gov is the U.S. government's official web portal to all federal, state and local government web resources and services.